sat.trackr.live / text

‹ back to catalog

STARLINK-35391

NORAD 66616 · 2025-270AE

PAYLOAD ACTIVE UNKNOWN

§ Identity

Operator
Country
US
Launch date
2025-11-22
Launch site
AFETR
Launch vehicle
Mass (kg)
RCS (m²)

Purposes: comms

External: N2YO · Heavens-Above · Gunter

§ Orbital elements

Epoch: 2026-09-20T16:13:28.843392Z

Period
94.27 min
Inclination
43.0043°
Eccentricity
0.0001538
Mean motion
15.27591909 rev/d
Perigee alt
482.0 km
Apogee alt
484.1 km
Semi-major
6,861.2 km
B*
4.7002e-4
RAAN
35.2426°
Arg perigee
276.6143°
Mean anomaly
83.4533°
Rev number
4,763

§ Raw data

STARLINK-353911 66616U 25270AE  26263.67602828  .00012699  00000+0  47002-3 0  99912 66616  43.0043  35.2426 0001538 276.6143  83.4533 15.27591909 47633

JSON: /api/v1/satellites/66616 · /tle

For live sub-satellite position, see the globe view (requires WebGL).

§ Visibility from observer

Set your observer location to see the next 7 days of passes ≥ 10°. The values pass through the URL so the page stays shareable.

No JS? Fill the form by hand. The geolocation button needs JavaScript.